START_TIME,STEP,MOV.,A46,t_acc.,A13,t_acc.,M47,t_acc.,A17,t_acc.,A28,t_acc.,M38,t_acc.
1981-08-30 21:01:06.800 ,0,0,,0,,0,,0,,0,,0,,0
1981-08-30 21:01:11.600 ,0,0,,0,,0,,0,,0,,0,,0
1981-08-30 21:01:16.400 ,0,0,,0,,0,,0,,0,,0,,0
1981-08-30 21:01:21.200 ,0,0,,0,1.,4.8,0.,4.8,,0,0.,4.8,0.,4.8
1981-08-30 21:01:26.000 ,0,0,,0,2.,4.8,0.,4.8,,0,0.,4.8,0.,4.8
1981-08-30 21:01:14.000 ,0,0,,0,1.,4.8,0.,4.8,,0,0.,4.8,0.,4.8
1981-08-30 21:01:18.800 ,0,0,,0,2.,4.8,0.,4.8,,0,0.,4.8,0.,4.8
1981-08-30 21:01:23.600 ,0,0,,0,1.,4.8,0.,4.8,,0,0.,4.8,0.,4.8
1981-08-30 21:01:28.400 ,0,0,,0,0.,4.8,0.,4.8,,0,0.,4.8,0.,4.8
1981-08-30 21:01:33.200 ,0,0,,0,0.,4.8,0.,4.8,,0,0.,4.8,0.,4.8
1981-08-30 21:01:38.000 ,5,0,,0,0.,4.8,0.,4.8,,0,0.,4.8,0.,4.8
1981-08-30 21:01:42.800 ,5,0,,0,0.,4.8,0.,4.8,,0,0.,4.8,0.,4.8
1981-08-30 21:01:47.600 ,5,0,,0,0.,4.8,0.,4.8,,0,0.,4.8,0.,4.8
1981-08-30 21:01:52.400 ,5,0,,0,0.,4.8,0.,4.8,,0,0.,4.8,0.,4.8
1981-08-30 21:01:57.200 ,5,0,,0,2.,4.8,0.,4.8,,0,0.,4.8,0.,4.8
1981-08-30 21:02:02.000 ,5,0,,0,2.,4.8,0.,4.8,,0,0.,4.8,0.,4.8
1981-08-30 21:02:06.800 ,5,0,,0,3.,4.8,0.,4.8,,0,0.,4.8,0.,4.8
1981-08-30 21:02:11.600 ,5,0,,0,1.,4.8,0.,4.8,,0,0.,4.8,0.,4.8
1981-08-30 21:02:16.400 ,5,0,,0,0.,4.8,0.,4.8,,0,0.,4.8,0.,4.8
1981-08-30 21:02:21.200 ,5,0,,0,0.,4.8,0.,4.8,,0,0.,4.8,0.,4.8
1981-08-30 21:02:26.000 ,4,0,,0,0.,4.8,0.,4.8,,0,0.,4.8,0.,4.8
1981-08-30 21:02:30.800 ,4,0,,0,0.,4.8,0.,4.8,,0,0.,4.8,0.,4.8
1981-08-30 21:02:35.600 ,4,0,,0,0.,4.8,0.,4.8,,0,0.,4.8,0.,4.8
1981-08-30 21:02:40.400 ,4,0,,0,0.,4.8,0.,4.8,,0,0.,4.8,0.,4.8
1981-08-30 21:02:45.200 ,4,0,,0,0.,4.8,0.,4.8,,0,0.,4.8,0.,4.8
1981-08-30 21:02:50.000 ,4,0,,0,0.,4.8,0.,4.8,,0,0.,4.8,0.,4.8
1981-08-30 21:02:54.800 ,4,0,,0,1.,4.8,0.,4.8,,0,0.,4.8,0.,4.8
1981-08-30 21:02:59.600 ,4,0,,0,0.,4.8,0.,4.8,,0,0.,4.8,0.,4.8
1981-08-30 21:03:04.400 ,4,0,,0,0.,4.8,0.,4.8,,0,0.,4.8,0.,4.8
1981-08-30 21:03:09.200 ,4,0,,0,0.,4.8,0.,4.8,,0,0.,4.8,0.,4.8
1981-08-30 21:03:14.000 ,3,0,,0,0.,4.8,0.,4.8,,0,0.,4.8,0.,4.8
1981-08-30 21:03:18.800 ,3,0,,0,0.,4.8,0.,4.8,,0,0.,4.8,0.,4.8
1981-08-30 21:03:23.600 ,3,0,,0,0.,4.8,0.,4.8,,0,0.,4.8,0.,4.8
1981-08-30 21:03:28.400 ,3,0,,0,2.,4.8,0.,4.8,,0,0.,4.8,0.,4.8
1981-08-30 21:03:33.200 ,3,0,,0,1.,4.8,0.,4.8,,0,0.,4.8,0.,4.8
1981-08-30 21:03:38.000 ,3,0,,0,0.,4.8,0.,4.8,,0,0.,4.8,0.,4.8
1981-08-30 21:03:42.800 ,3,0,,0,1.,4.8,0.,4.8,,0,0.,4.8,0.,4.8
1981-08-30 21:03:47.600 ,3,0,,0,3.,4.8,0.,4.8,,0,0.,4.8,0.,4.8
1981-08-30 21:03:52.400 ,3,0,,0,0.,4.8,0.,4.8,,0,0.,4.8,0.,4.8
1981-08-30 21:03:57.200 ,3,0,,0,0.,4.8,0.,4.8,,0,0.,4.8,0.,4.8
1981-08-30 21:04:02.000 ,2,0,,0,0.,4.8,0.,4.8,,0,0.,4.8,0.,4.8
1981-08-30 21:04:06.800 ,2,0,,0,0.,4.8,0.,4.8,,0,0.,4.8,0.,4.8
1981-08-30 21:04:11.600 ,2,0,,0,0.,4.8,0.,4.8,,0,0.,4.8,0.,4.8
1981-08-30 21:04:16.400 ,2,0,,0,1.,4.8,0.,4.8,,0,0.,4.8,0.,4.8
1981-08-30 21:04:21.200 ,2,0,,0,1.,4.8,0.,4.8,,0,0.,4.8,0.,4.8
1981-08-30 21:04:26.000 ,2,0,,0,0.,4.8,0.,4.8,,0,0.,4.8,0.,4.8
1981-08-30 21:04:30.800 ,2,0,,0,1.,4.8,0.,4.8,,0,0.,4.8,0.,4.8
1981-08-30 21:04:35.600 ,2,0,,0,1.,4.8,0.,4.8,,0,0.,4.8,0.,4.8
1981-08-30 21:04:40.400 ,2,0,,0,0.,4.8,0.,4.8,,0,0.,4.8,0.,4.8
1981-08-30 21:04:45.200 ,2,0,,0,0.,4.8,0.,4.8,,0,0.,4.8,0.,4.8
1981-08-30 21:04:50.000 ,1,0,,0,0.,4.8,0.,4.8,,0,0.,4.8,0.,4.8
1981-08-30 21:04:54.800 ,1,0,,0,0.,4.8,0.,4.8,,0,0.,4.8,0.,4.8
1981-08-30 21:04:59.600 ,1,0,,0,1.,4.8,0.,4.8,,0,0.,4.8,0.,4.8
1981-08-30 21:05:04.400 ,1,0,,0,0.,4.8,0.,4.8,,0,0.,4.8,0.,4.8
1981-08-30 21:05:09.200 ,1,0,,0,1.,4.8,0.,4.8,,0,0.,4.8,0.,4.8
1981-08-30 21:05:14.000 ,1,0,,0,0.,4.8,0.,4.8,,0,0.,4.8,0.,4.8
1981-08-30 21:05:18.800 ,1,0,,0,0.,4.8,0.,4.8,,0,1.,4.8,0.,4.8
1981-08-30 21:05:23.600 ,1,0,,0,2.,4.8,0.,4.8,,0,0.,4.8,0.,4.8
1981-08-30 21:05:28.400 ,1,0,,0,0.,4.8,0.,4.8,,0,0.,4.8,0.,4.8
1981-08-30 21:05:33.200 ,1,0,,0,0.,4.8,0.,4.8,,0,0.,4.8,0.,4.8
1981-08-30 21:05:38.000 ,0,0,,0,0.,4.8,0.,4.8,,0,0.,4.8,0.,4.8
1981-08-30 21:05:42.800 ,0,0,,0,0.,4.8,0.,4.8,,0,0.,4.8,0.,4.8
1981-08-30 21:05:47.600 ,0,0,,0,0.,4.8,0.,4.8,,0,0.,4.8,0.,4.8
1981-08-30 21:05:52.400 ,0,0,,0,2.,4.8,0.,4.8,,0,0.,4.8,0.,4.8
1981-08-30 21:05:57.200 ,0,0,,0,0.,4.8,0.,4.8,,0,0.,4.8,0.,4.8
1981-08-30 21:06:02.000 ,0,0,,0,0.,4.8,0.,4.8,,0,0.,4.8,0.,4.8
1981-08-30 21:06:06.800 ,0,0,,0,0.,4.8,0.,4.8,,0,0.,4.8,0.,4.8
1981-08-30 21:06:11.600 ,0,0,,0,0.,4.8,0.,4.8,,0,0.,4.8,0.,4.8
1981-08-30 21:06:16.400 ,0,0,,0,0.,4.8,0.,4.8,,0,0.,4.8,0.,4.8
1981-08-30 21:06:21.200 ,0,0,,0,0.,4.8,0.,4.8,,0,0.,4.8,0.,4.8
1981-08-30 21:06:26.000 ,0,0,,0,0.,4.8,0.,4.8,,0,0.,4.8,0.,4.8
1981-08-30 21:06:30.800 ,0,0,,0,0.,4.8,0.,4.8,,0,0.,4.8,0.,4.8
1981-08-30 21:06:35.600 ,0,0,,0,0.,4.8,0.,4.8,,0,0.,4.8,0.,4.8
1981-08-30 21:06:40.400 ,0,0,,0,0.,4.8,0.,4.8,,0,0.,4.8,0.,4.8
1981-08-30 21:06:45.200 ,0,0,,0,0.,4.8,0.,4.8,,0,0.,4.8,0.,4.8
1981-08-30 21:06:50.000 ,0,0,,0,0.,4.8,0.,4.8,,0,0.,4.8,0.,4.8
1981-08-30 21:06:54.800 ,0,0,,0,2.,4.8,0.,4.8,,0,0.,4.8,0.,4.8
1981-08-30 21:06:59.600 ,0,0,,0,0.,4.8,0.,4.8,,0,0.,4.8,0.,4.8
1981-08-30 21:07:04.400 ,0,0,,0,0.,4.8,0.,4.8,,0,0.,4.8,0.,4.8
1981-08-30 21:07:09.200 ,0,0,,0,0.,4.8,0.,4.8,,0,0.,4.8,0.,4.8
1981-08-30 21:07:14.000 ,1,0,,0,0.,4.8,0.,4.8,,0,0.,4.8,0.,4.8
1981-08-30 21:07:18.800 ,1,0,,0,0.,4.8,0.,4.8,,0,0.,4.8,0.,4.8
1981-08-30 21:07:23.600 ,1,0,,0,0.,4.8,0.,4.8,,0,0.,4.8,0.,4.8
1981-08-30 21:07:28.400 ,1,0,,0,0.,4.8,0.,4.8,,0,0.,4.8,0.,4.8
1981-08-30 21:07:33.200 ,1,0,,0,1.,4.8,0.,4.8,,0,0.,4.8,0.,4.8
1981-08-30 21:07:38.000 ,1,0,,0,0.,4.8,0.,4.8,,0,0.,4.8,0.,4.8
1981-08-30 21:07:42.800 ,1,0,,0,0.,4.8,0.,4.8,,0,0.,4.8,0.,4.8
1981-08-30 21:07:47.600 ,1,0,,0,1.,4.8,0.,4.8,,0,0.,4.8,0.,4.8
1981-08-30 21:07:52.400 ,1,0,,0,0.,4.8,0.,4.8,,0,0.,4.8,0.,4.8
1981-08-30 21:07:57.200 ,1,0,,0,0.,4.8,0.,4.8,,0,0.,4.8,0.,4.8
1981-08-30 21:08:02.000 ,2,0,,0,0.,4.8,0.,4.8,,0,0.,4.8,0.,4.8
1981-08-30 21:08:06.800 ,2,0,,0,0.,4.8,0.,4.8,,0,0.,4.8,0.,4.8
1981-08-30 21:08:11.600 ,2,0,,0,0.,4.8,0.,4.8,,0,0.,4.8,0.,4.8
1981-08-30 21:08:16.400 ,2,0,,0,3.,4.8,0.,4.8,,0,0.,4.8,0.,4.8
1981-08-30 21:08:21.200 ,2,0,,0,0.,4.8,0.,4.8,,0,0.,4.8,0.,4.8
1981-08-30 21:08:26.000 ,2,0,,0,0.,4.8,0.,4.8,,0,0.,4.8,0.,4.8
1981-08-30 21:08:30.800 ,2,0,,0,0.,4.8,0.,4.8,,0,0.,4.8,0.,4.8
1981-08-30 21:08:35.600 ,2,0,,0,2.,4.8,0.,4.8,,0,0.,4.8,0.,4.8
1981-08-30 21:08:40.400 ,2,0,,0,0.,4.8,0.,4.8,,0,0.,4.8,0.,4.8
1981-08-30 21:08:45.200 ,2,0,,0,0.,4.8,0.,4.8,,0,0.,4.8,0.,4.8
1981-08-30 21:08:50.000 ,3,0,,0,0.,4.8,0.,4.8,,0,0.,4.8,0.,4.8
1981-08-30 21:08:54.800 ,3,0,,0,0.,4.8,0.,4.8,,0,0.,4.8,0.,4.8
1981-08-30 21:08:59.600 ,3,0,,0,1.,4.8,0.,4.8,,0,0.,4.8,0.,4.8
1981-08-30 21:09:04.400 ,3,0,,0,1.,4.8,0.,4.8,,0,0.,4.8,0.,4.8
1981-08-30 21:09:09.200 ,3,0,,0,0.,4.8,0.,4.8,,0,0.,4.8,0.,4.8
1981-08-30 21:09:14.000 ,4,0,,0,0.,4.8,0.,4.8,,0,0.,4.8,0.,4.8
1981-08-30 21:09:18.800 ,4,0,,0,3.,4.8,0.,4.8,,0,0.,4.8,0.,4.8
1981-08-30 21:09:23.600 ,4,0,,0,1.,4.8,0.,4.8,,0,0.,4.8,0.,4.8
1981-08-30 21:09:28.400 ,4,0,,0,0.,4.8,0.,4.8,,0,0.,4.8,0.,4.8
1981-08-30 21:09:33.200 ,4,0,,0,0.,4.8,0.,4.8,,0,0.,4.8,0.,4.8
1981-08-30 21:09:38.000 ,5,0,,0,0.,4.8,0.,4.8,,0,0.,4.8,0.,4.8
1981-08-30 21:09:42.800 ,5,0,,0,0.,4.8,0.,4.8,,0,0.,4.8,0.,4.8
1981-08-30 21:09:47.600 ,5,0,,0,0.,4.8,0.,4.8,,0,0.,4.8,0.,4.8
1981-08-30 21:09:52.400 ,5,0,,0,1.,4.8,0.,4.8,,0,0.,4.8,0.,4.8
1981-08-30 21:09:57.200 ,5,0,,0,2.,4.8,0.,4.8,,0,0.,4.8,0.,4.8
1981-08-30 21:10:02.000 ,6,0,,0,2.,4.8,0.,4.8,,0,0.,4.8,0.,4.8
1981-08-30 21:10:06.800 ,6,0,,0,1.,4.8,0.,4.8,,0,0.,4.8,0.,4.8
1981-08-30 21:10:11.600 ,6,0,,0,0.,4.8,0.,4.8,,0,0.,4.8,0.,4.8
1981-08-30 21:10:16.400 ,6,0,,0,0.,4.8,0.,4.8,,0,0.,4.8,0.,4.8
1981-08-30 21:10:21.200 ,6,0,,0,0.,4.8,0.,4.8,,0,0.,4.8,0.,4.8
1981-08-30 21:10:26.000 ,7,0,,0,0.,4.8,0.,4.8,,0,0.,4.8,0.,4.8
1981-08-30 21:10:30.800 ,7,0,,0,0.,4.8,0.,4.8,,0,0.,4.8,0.,4.8
1981-08-30 21:10:35.600 ,7,0,,0,1.,4.8,0.,4.8,,0,0.,4.8,0.,4.8
1981-08-30 21:10:40.400 ,7,0,,0,11.,4.8,0.,4.8,,0,0.,4.8,0.,4.8
1981-08-30 21:10:45.200 ,7,0,,0,6.,4.8,0.,4.8,,0,0.,4.8,0.,4.8
1981-08-30 21:10:50.000 ,7,0,,0,9.,4.8,0.,4.8,,0,0.,4.8,0.,4.8
1981-08-30 21:10:54.800 ,7,0,,0,8.,4.8,0.,4.8,,0,0.,4.8,0.,4.8
1981-08-30 21:10:59.600 ,7,0,,0,5.,4.8,0.,4.8,,0,0.,4.8,0.,4.8
1981-08-30 21:11:04.400 ,7,0,,0,0.,4.8,0.,4.8,,0,0.,4.8,0.,4.8
1981-08-30 21:11:09.200 ,7,0,,0,0.,4.8,0.,4.8,,0,0.,4.8,0.,4.8
1981-08-30 21:11:14.000 ,6,0,,0,0.,4.8,0.,4.8,,0,0.,4.8,0.,4.8
1981-08-30 21:11:18.800 ,6,0,,0,0.,4.8,0.,4.8,,0,0.,4.8,0.,4.8
1981-08-30 21:11:23.600 ,6,0,,0,1.,4.8,0.,4.8,,0,0.,4.8,0.,4.8
1981-08-30 21:11:28.400 ,6,0,,0,3.,4.8,0.,4.8,,0,0.,4.8,0.,4.8
1981-08-30 21:11:33.200 ,6,0,,0,0.,4.8,0.,4.8,,0,0.,4.8,0.,4.8
1981-08-30 21:11:38.000 ,5,0,,0,2.,4.8,0.,4.8,,0,1.,4.8,0.,4.8
1981-08-30 21:11:42.800 ,5,0,,0,0.,4.8,0.,4.8,,0,0.,4.8,0.,4.8
1981-08-30 21:11:47.600 ,5,0,,0,1.,4.8,0.,4.8,,0,0.,4.8,0.,4.8
1981-08-30 21:11:52.400 ,5,0,,0,0.,4.8,0.,4.8,,0,0.,4.8,0.,4.8
1981-08-30 21:11:57.200 ,5,0,,0,0.,4.8,0.,4.8,,0,0.,4.8,0.,4.8
1981-08-30 21:12:02.000 ,4,0,,0,0.,4.8,0.,4.8,,0,0.,4.8,0.,4.8
1981-08-30 21:12:06.800 ,4,0,,0,0.,4.8,0.,4.8,,0,0.,4.8,0.,4.8
1981-08-30 21:12:11.600 ,4,0,,0,0.,4.8,0.,4.8,,0,0.,4.8,0.,4.8
1981-08-30 21:12:16.400 ,4,0,,0,1.,4.8,0.,4.8,,0,0.,4.8,0.,4.8
1981-08-30 21:12:21.200 ,4,0,,0,0.,4.8,0.,4.8,,0,0.,4.8,0.,4.8
1981-08-30 21:12:26.000 ,3,0,,0,1.,4.8,0.,4.8,,0,0.,4.8,0.,4.8
1981-08-30 21:12:30.800 ,3,0,,0,2.,4.8,0.,4.8,,0,0.,4.8,0.,4.8
1981-08-30 21:12:35.600 ,3,0,,0,1.,4.8,0.,4.8,,0,0.,4.8,0.,4.8
1981-08-30 21:12:40.400 ,3,0,,0,0.,4.8,0.,4.8,,0,0.,4.8,0.,4.8
1981-08-30 21:12:45.200 ,3,0,,0,0.,4.8,0.,4.8,,0,0.,4.8,0.,4.8
1981-08-30 21:12:50.000 ,2,0,,0,0.,4.8,0.,4.8,,0,0.,4.8,0.,4.8
1981-08-30 21:12:54.800 ,2,0,,0,0.,4.8,0.,4.8,,0,0.,4.8,0.,4.8
1981-08-30 21:12:59.600 ,2,0,,0,0.,4.8,0.,4.8,,0,0.,4.8,0.,4.8
1981-08-30 21:13:04.400 ,2,0,,0,0.,4.8,0.,4.8,,0,0.,4.8,0.,4.8
1981-08-30 21:13:09.200 ,2,0,,0,1.,4.8,0.,4.8,,0,0.,4.8,0.,4.8
1981-08-30 21:13:14.000 ,1,0,,0,1.,4.8,0.,4.8,,0,0.,4.8,0.,4.8
1981-08-30 21:13:18.800 ,1,0,,0,1.,4.8,0.,4.8,,0,0.,4.8,0.,4.8
1981-08-30 21:13:23.600 ,1,0,,0,0.,4.8,0.,4.8,,0,0.,4.8,0.,4.8
1981-08-30 21:13:28.400 ,1,0,,0,0.,4.8,0.,4.8,,0,0.,4.8,0.,4.8
1981-08-30 21:13:33.200 ,1,0,,0,0.,4.8,0.,4.8,,0,0.,4.8,0.,4.8
1981-08-30 21:13:38.000 ,0,0,,0,0.,4.8,0.,4.8,,0,0.,4.8,0.,4.8
1981-08-30 21:13:42.800 ,0,0,,0,0.,4.8,0.,4.8,,0,0.,4.8,0.,4.8
1981-08-30 21:13:47.600 ,0,0,,0,0.,4.8,0.,4.8,,0,0.,4.8,0.,4.8
1981-08-30 21:13:52.400 ,0,0,,0,0.,4.8,0.,4.8,,0,0.,4.8,0.,4.8
1981-08-30 21:13:57.200 ,0,0,,0,0.,4.8,0.,4.8,,0,0.,4.8,0.,4.8
1981-08-30 21:14:02.000 ,0,0,,0,1.,4.8,0.,4.8,,0,0.,4.8,0.,4.8
1981-08-30 21:14:06.800 ,0,0,,0,1.,4.8,0.,4.8,,0,0.,4.8,0.,4.8
1981-08-30 21:14:11.600 ,0,0,,0,0.,4.8,0.,4.8,,0,0.,4.8,0.,4.8
1981-08-30 21:14:16.400 ,0,0,,0,0.,4.8,0.,4.8,,0,0.,4.8,0.,4.8
1981-08-30 21:14:21.200 ,0,0,,0,0.,4.8,0.,4.8,,0,0.,4.8,0.,4.8
1981-08-30 21:14:26.000 ,1,0,,0,0.,4.8,0.,4.8,,0,0.,4.8,0.,4.8
1981-08-30 21:14:30.800 ,1,0,,0,0.,4.8,0.,4.8,,0,0.,4.8,0.,4.8
1981-08-30 21:14:35.600 ,1,0,,0,0.,4.8,0.,4.8,,0,0.,4.8,0.,4.8
1981-08-30 21:14:40.400 ,1,0,,0,0.,4.8,0.,4.8,,0,0.,4.8,0.,4.8
1981-08-30 21:14:45.200 ,1,0,,0,0.,4.8,0.,4.8,,0,0.,4.8,0.,4.8
1981-08-30 21:14:50.000 ,2,0,,0,2.,4.8,0.,4.8,,0,0.,4.8,0.,4.8
1981-08-30 21:14:54.800 ,2,0,,0,1.,4.8,0.,4.8,,0,0.,4.8,0.,4.8
1981-08-30 21:14:59.600 ,2,0,,0,1.,4.8,0.,4.8,,0,0.,4.8,0.,4.8
1981-08-30 21:15:04.400 ,2,0,,0,0.,4.8,0.,4.8,,0,0.,4.8,0.,4.8
1981-08-30 21:15:09.200 ,2,0,,0,0.,4.8,0.,4.8,,0,0.,4.8,0.,4.8
1981-08-30 21:15:14.000 ,3,0,,0,0.,4.8,0.,4.8,,0,0.,4.8,0.,4.8
1981-08-30 21:15:18.800 ,3,0,,0,0.,4.8,0.,4.8,,0,0.,4.8,0.,4.8
1981-08-30 21:15:23.600 ,3,0,,0,1.,4.8,0.,4.8,,0,0.,4.8,0.,4.8
1981-08-30 21:15:28.400 ,3,0,,0,2.,4.8,0.,4.8,,0,0.,4.8,0.,4.8
1981-08-30 21:15:33.200 ,3,0,,0,2.,4.8,0.,4.8,,0,0.,4.8,0.,4.8
1981-08-30 21:15:38.000 ,3,0,,0,0.,4.8,0.,4.8,,0,0.,4.8,0.,4.8
1981-08-30 21:15:42.800 ,3,0,,0,0.,4.8,0.,4.8,,0,0.,4.8,0.,4.8
1981-08-30 21:15:47.600 ,3,0,,0,0.,4.8,0.,4.8,,0,0.,4.8,0.,4.8
1981-08-30 21:15:52.400 ,3,0,,0,0.,4.8,0.,4.8,,0,0.,4.8,0.,4.8
1981-08-30 21:15:57.200 ,3,0,,0,0.,4.8,0.,4.8,,0,0.,4.8,0.,4.8
1981-08-30 21:16:02.000 ,4,0,,0,1.,4.8,1.,4.8,,0,0.,4.8,0.,4.8
1981-08-30 21:16:06.800 ,4,0,,0,0.,4.8,0.,4.8,,0,0.,4.8,0.,4.8
1981-08-30 21:16:11.600 ,4,0,,0,0.,4.8,0.,4.8,,0,0.,4.8,0.,4.8
1981-08-30 21:16:16.400 ,4,0,,0,0.,4.8,0.,4.8,,0,0.,4.8,0.,4.8
1981-08-30 21:16:21.200 ,4,0,,0,1.,4.8,0.,4.8,,0,0.,4.8,0.,4.8
1981-08-30 21:16:26.000 ,4,0,,0,3.,4.8,0.,4.8,,0,0.,4.8,0.,4.8
1981-08-30 21:16:30.800 ,4,0,,0,0.,4.8,0.,4.8,,0,0.,4.8,0.,4.8
1981-08-30 21:16:35.600 ,4,0,,0,1.,4.8,0.,4.8,,0,0.,4.8,0.,4.8
1981-08-30 21:16:40.400 ,4,0,,0,0.,4.8,0.,4.8,,0,0.,4.8,0.,4.8
1981-08-30 21:16:45.200 ,4,0,,0,0.,4.8,0.,4.8,,0,0.,4.8,0.,4.8
1981-08-30 21:16:50.000 ,5,0,,0,0.,4.8,0.,4.8,,0,0.,4.8,0.,4.8
1981-08-30 21:16:54.800 ,5,0,,0,0.,4.8,0.,4.8,,0,0.,4.8,0.,4.8
1981-08-30 21:16:59.600 ,5,0,,0,0.,4.8,0.,4.8,,0,0.,4.8,0.,4.8
1981-08-30 21:17:04.400 ,5,0,,0,0.,4.8,0.,4.8,,0,0.,4.8,0.,4.8
1981-08-30 21:17:09.200 ,5,0,,0,0.,4.8,0.,4.8,,0,0.,4.8,0.,4.8
1981-08-30 21:17:14.000 ,5,0,,0,2.,4.8,0.,4.8,,0,0.,4.8,0.,4.8
1981-08-30 21:17:18.800 ,5,0,,0,0.,4.8,0.,4.8,,0,0.,4.8,0.,4.8
1981-08-30 21:17:23.600 ,5,0,,0,1.,4.8,0.,4.8,,0,0.,4.8,0.,4.8
1981-08-30 21:17:28.400 ,5,0,,0,0.,4.8,0.,4.8,,0,0.,4.8,0.,4.8
1981-08-30 21:17:33.200 ,5,0,,0,0.,4.8,0.,4.8,,0,0.,4.8,0.,4.8
1981-08-30 21:17:38.000 ,6,0,,0,0.,4.8,0.,4.8,,0,0.,4.8,0.,4.8
1981-08-30 21:17:42.800 ,6,0,,0,0.,4.8,0.,4.8,,0,0.,4.8,0.,4.8
1981-08-30 21:17:47.600 ,6,0,,0,0.,4.8,0.,4.8,,0,0.,4.8,0.,4.8
1981-08-30 21:17:52.400 ,6,0,,0,0.,4.8,0.,4.8,,0,0.,4.8,0.,4.8
1981-08-30 21:17:57.200 ,6,0,,0,4.,4.8,0.,4.8,,0,0.,4.8,0.,4.8
1981-08-30 21:18:02.000 ,6,0,,0,2.,4.8,0.,4.8,,0,0.,4.8,0.,4.8
1981-08-30 21:18:06.800 ,6,0,,0,1.,4.8,0.,4.8,,0,0.,4.8,0.,4.8
1981-08-30 21:18:11.600 ,6,0,,0,3.,4.8,0.,4.8,,0,0.,4.8,0.,4.8
1981-08-30 21:18:16.400 ,6,0,,0,0.,4.8,0.,4.8,,0,0.,4.8,0.,4.8
1981-08-30 21:18:21.200 ,6,0,,0,0.,4.8,0.,4.8,,0,0.,4.8,0.,4.8
1981-08-30 21:18:26.000 ,7,0,,0,0.,4.8,0.,4.8,,0,0.,4.8,0.,4.8
1981-08-30 21:18:30.800 ,7,0,,0,0.,4.8,0.,4.8,,0,0.,4.8,0.,4.8
1981-08-30 21:18:35.600 ,7,0,,0,1.,4.8,0.,4.8,,0,0.,4.8,0.,4.8
1981-08-30 21:18:40.400 ,7,0,,0,13.,4.8,0.,4.8,,0,0.,4.8,0.,4.8
1981-08-30 21:18:45.200 ,7,0,,0,7.,4.8,0.,4.8,,0,0.,4.8,0.,4.8
1981-08-30 21:18:50.000 ,7,0,,0,8.,4.8,0.,4.8,,0,0.,4.8,0.,4.8
1981-08-30 21:18:54.800 ,7,0,,0,6.,4.8,0.,4.8,,0,0.,4.8,0.,4.8
1981-08-30 21:18:59.600 ,7,0,,0,7.,4.8,0.,4.8,,0,0.,4.8,0.,4.8
1981-08-30 21:19:04.400 ,7,0,,0,0.,4.8,0.,4.8,,0,0.,4.8,0.,4.8
1981-08-30 21:19:09.200 ,7,0,,0,0.,4.8,0.,4.8,,0,0.,4.8,0.,4.8
1981-08-30 21:19:14.000 ,7,0,,0,0.,4.8,0.,4.8,,0,0.,4.8,0.,4.8
1981-08-30 21:19:18.800 ,7,0,,0,0.,4.8,0.,4.8,,0,0.,4.8,0.,4.8
1981-08-30 21:19:23.600 ,7,0,,0,1.,4.8,0.,4.8,,0,0.,4.8,0.,4.8
1981-08-30 21:19:28.400 ,7,0,,0,3.,4.8,0.,4.8,,0,0.,4.8,0.,4.8
1981-08-30 21:19:33.200 ,7,0,,0,5.,4.8,0.,4.8,,0,0.,4.8,0.,4.8
1981-08-30 21:19:38.000 ,7,0,,0,11.,4.8,0.,4.8,,0,0.,4.8,0.,4.8
1981-08-30 21:19:42.800 ,7,0,,0,7.,4.8,0.,4.8,,0,0.,4.8,0.,4.8
1981-08-30 21:19:47.600 ,7,0,,0,6.,4.8,0.,4.8,,0,0.,4.8,0.,4.8
1981-08-30 21:19:52.400 ,7,0,,0,0.,4.8,0.,4.8,,0,0.,4.8,0.,4.8
1981-08-30 21:19:57.200 ,7,0,,0,0.,4.8,0.,4.8,,0,0.,4.8,0.,4.8
1981-08-30 21:20:02.000 ,6,0,,0,0.,4.8,0.,4.8,,0,0.,4.8,0.,4.8
1981-08-30 21:20:06.800 ,6,0,,0,0.,4.8,0.,4.8,,0,0.,4.8,0.,4.8
1981-08-30 21:20:11.600 ,6,0,,0,1.,4.8,0.,4.8,,0,0.,4.8,0.,4.8
1981-08-30 21:20:16.400 ,6,0,,0,0.,4.8,0.,4.8,,0,0.,4.8,0.,4.8
1981-08-30 21:20:21.200 ,6,0,,0,0.,4.8,0.,4.8,,0,0.,4.8,0.,4.8
1981-08-30 21:20:26.000 ,6,0,,0,5.,4.8,0.,4.8,,0,0.,4.8,0.,4.8
1981-08-30 21:20:30.800 ,6,0,,0,3.,4.8,0.,4.8,,0,0.,4.8,0.,4.8
1981-08-30 21:20:35.600 ,6,0,,0,2.,4.8,0.,4.8,,0,0.,4.8,0.,4.8
1981-08-30 21:20:40.400 ,6,0,,0,0.,4.8,0.,4.8,,0,0.,4.8,0.,4.8
1981-08-30 21:20:45.200 ,6,0,,0,0.,4.8,0.,4.8,,0,0.,4.8,0.,4.8
1981-08-30 21:20:50.000 ,5,0,,0,0.,4.8,0.,4.8,,0,0.,4.8,0.,4.8
1981-08-30 21:20:54.800 ,5,0,,0,0.,4.8,0.,4.8,,0,0.,4.8,0.,4.8
1981-08-30 21:20:59.600 ,5,0,,0,1.,4.8,0.,4.8,,0,1.,4.8,0.,4.8
1981-08-30 21:21:04.400 ,5,0,,0,0.,4.8,0.,4.8,,0,0.,4.8,0.,4.8
1981-08-30 21:21:09.200 ,5,0,,0,0.,4.8,0.,4.8,,0,0.,4.8,0.,4.8
1981-08-30 21:21:14.000 ,5,0,,0,0.,4.8,0.,4.8,,0,0.,4.8,0.,4.8
1981-08-30 21:21:18.800 ,5,0,,0,1.,4.8,0.,4.8,,0,0.,4.8,0.,4.8
1981-08-30 21:21:23.600 ,5,0,,0,0.,4.8,0.,4.8,,0,0.,4.8,0.,4.8
1981-08-30 21:21:28.400 ,5,0,,0,0.,4.8,0.,4.8,,0,0.,4.8,0.,4.8
1981-08-30 21:21:33.200 ,5,0,,0,0.,4.8,0.,4.8,,0,0.,4.8,0.,4.8
1981-08-30 21:21:38.000 ,4,0,,0,0.,4.8,0.,4.8,,0,0.,4.8,0.,4.8
1981-08-30 21:21:42.800 ,4,0,,0,0.,4.8,0.,4.8,,0,0.,4.8,0.,4.8
1981-08-30 21:21:47.600 ,4,0,,0,0.,4.8,0.,4.8,,0,0.,4.8,0.,4.8
1981-08-30 21:21:52.400 ,4,0,,0,0.,4.8,0.,4.8,,0,0.,4.8,0.,4.8
1981-08-30 21:21:57.200 ,4,0,,0,0.,4.8,0.,4.8,,0,0.,4.8,0.,4.8
1981-08-30 21:22:02.000 ,4,0,,0,1.,4.8,0.,4.8,,0,0.,4.8,0.,4.8
1981-08-30 21:22:06.800 ,4,0,,0,1.,4.8,0.,4.8,,0,0.,4.8,0.,4.8
1981-08-30 21:22:11.600 ,4,0,,0,1.,4.8,0.,4.8,,0,0.,4.8,0.,4.8
1981-08-30 21:22:16.400 ,4,0,,0,0.,4.8,0.,4.8,,0,0.,4.8,0.,4.8
1981-08-30 21:22:21.200 ,4,0,,0,0.,4.8,0.,4.8,,0,0.,4.8,0.,4.8
1981-08-30 21:22:26.000 ,3,0,,0,0.,4.8,0.,4.8,,0,0.,4.8,0.,4.8
1981-08-30 21:22:30.800 ,3,0,,0,0.,4.8,0.,4.8,,0,0.,4.8,0.,4.8
1981-08-30 21:22:35.600 ,3,0,,0,0.,4.8,0.,4.8,,0,0.,4.8,0.,4.8
1981-08-30 21:22:40.400 ,3,0,,0,2.,4.8,0.,4.8,,0,0.,4.8,0.,4.8
1981-08-30 21:22:45.200 ,3,0,,0,0.,4.8,0.,4.8,,0,0.,4.8,0.,4.8
1981-08-30 21:22:50.000 ,3,0,,0,1.,4.8,0.,4.8,,0,0.,4.8,0.,4.8
1981-08-30 21:22:54.800 ,3,0,,0,0.,4.8,0.,4.8,,0,0.,4.8,0.,4.8
1981-08-30 21:22:59.600 ,3,0,,0,1.,4.8,0.,4.8,,0,0.,4.8,0.,4.8
1981-08-30 21:23:04.400 ,3,0,,0,0.,4.8,0.,4.8,,0,0.,4.8,0.,4.8
1981-08-30 21:23:09.200 ,3,0,,0,0.,4.8,0.,4.8,,0,0.,4.8,0.,4.8
1981-08-30 21:23:14.000 ,2,0,,0,0.,4.8,1.,4.8,,0,0.,4.8,0.,4.8
1981-08-30 21:23:18.800 ,2,0,,0,0.,4.8,0.,4.8,,0,0.,4.8,0.,4.8
1981-08-30 21:23:23.600 ,2,0,,0,0.,4.8,0.,4.8,,0,0.,4.8,0.,4.8
1981-08-30 21:23:28.400 ,2,0,,0,1.,4.8,0.,4.8,,0,0.,4.8,0.,4.8
1981-08-30 21:23:33.200 ,2,0,,0,1.,4.8,0.,4.8,,0,0.,4.8,0.,4.8
1981-08-30 21:23:38.000 ,2,0,,0,1.,4.8,0.,4.8,,0,0.,4.8,0.,4.8
1981-08-30 21:23:42.800 ,2,0,,0,2.,4.8,0.,4.8,,0,0.,4.8,0.,4.8
1981-08-30 21:23:47.600 ,2,0,,0,2.,4.8,0.,4.8,,0,0.,4.8,0.,4.8
1981-08-30 21:23:52.400 ,2,0,,0,0.,4.8,0.,4.8,,0,0.,4.8,0.,4.8
1981-08-30 21:23:57.200 ,2,0,,0,0.,4.8,0.,4.8,,0,0.,4.8,0.,4.8
1981-08-30 21:24:02.000 ,1,0,,0,0.,4.8,0.,4.8,,0,0.,4.8,0.,4.8
1981-08-30 21:24:06.800 ,1,0,,0,0.,4.8,0.,4.8,,0,0.,4.8,0.,4.8
1981-08-30 21:24:11.600 ,1,0,,0,0.,4.8,0.,4.8,,0,0.,4.8,0.,4.8
1981-08-30 21:24:16.400 ,1,0,,0,1.,4.8,0.,4.8,,0,0.,4.8,0.,4.8
1981-08-30 21:24:21.200 ,1,0,,0,0.,4.8,0.,4.8,,0,0.,4.8,0.,4.8
1981-08-30 21:24:26.000 ,1,0,,0,0.,4.8,0.,4.8,,0,0.,4.8,0.,4.8
1981-08-30 21:24:30.800 ,1,0,,0,2.,4.8,0.,4.8,,0,0.,4.8,0.,4.8
1981-08-30 21:24:35.600 ,1,0,,0,0.,4.8,0.,4.8,,0,0.,4.8,0.,4.8
1981-08-30 21:24:40.400 ,1,0,,0,0.,4.8,0.,4.8,,0,0.,4.8,0.,4.8
1981-08-30 21:24:45.200 ,1,0,,0,0.,4.8,0.,4.8,,0,0.,4.8,0.,4.8
1981-08-30 21:24:50.000 ,0,0,,0,0.,4.8,0.,4.8,,0,0.,4.8,0.,4.8
1981-08-30 21:24:54.800 ,0,0,,0,0.,4.8,0.,4.8,,0,0.,4.8,0.,4.8
1981-08-30 21:24:59.600 ,0,0,,0,0.,4.8,0.,4.8,,0,0.,4.8,0.,4.8
1981-08-30 21:25:04.400 ,0,0,,0,0.,4.8,0.,4.8,,0,0.,4.8,0.,4.8
1981-08-30 21:25:09.200 ,0,0,,0,0.,4.8,0.,4.8,,0,0.,4.8,0.,4.8
1981-08-30 21:25:14.000 ,0,0,,0,0.,4.8,0.,4.8,,0,0.,4.8,0.,4.8
1981-08-30 21:25:18.800 ,0,0,,0,0.,4.8,0.,4.8,,0,0.,4.8,0.,4.8
1981-08-30 21:25:23.600 ,0,0,,0,1.,4.8,0.,4.8,,0,0.,4.8,0.,4.8
1981-08-30 21:25:28.400 ,0,0,,0,0.,4.8,0.,4.8,,0,0.,4.8,0.,4.8
1981-08-30 21:25:33.200 ,0,0,,0,0.,4.8,0.,4.8,,0,0.,4.8,0.,4.8
1981-08-30 21:25:38.000 ,0,0,,0,0.,4.8,0.,4.8,,0,0.,4.8,0.,4.8
1981-08-30 21:25:42.800 ,0,0,,0,0.,4.8,0.,4.8,,0,0.,4.8,0.,4.8
1981-08-30 21:25:47.600 ,0,0,,0,0.,4.8,0.,4.8,,0,0.,4.8,0.,4.8
1981-08-30 21:25:52.400 ,0,0,,0,1.,4.8,0.,4.8,,0,0.,4.8,0.,4.8
1981-08-30 21:25:57.200 ,0,0,,0,0.,4.8,0.,4.8,,0,0.,4.8,0.,4.8
1981-08-30 21:26:02.000 ,0,0,,0,0.,4.8,0.,4.8,,0,0.,4.8,0.,4.8
1981-08-30 21:26:06.800 ,0,0,,0,1.,4.8,0.,4.8,,0,0.,4.8,0.,4.8
1981-08-30 21:26:11.600 ,0,0,,0,0.,4.8,0.,4.8,,0,0.,4.8,0.,4.8
1981-08-30 21:26:16.400 ,0,0,,0,0.,4.8,0.,4.8,,0,0.,4.8,0.,4.8
1981-08-30 21:26:21.200 ,0,0,,0,0.,4.8,0.,4.8,,0,0.,4.8,0.,4.8
1981-08-30 21:26:26.000 ,1,0,,0,0.,4.8,0.,4.8,,0,0.,4.8,0.,4.8
1981-08-30 21:26:30.800 ,1,0,,0,0.,4.8,0.,4.8,,0,0.,4.8,0.,4.8
1981-08-30 21:26:35.600 ,1,0,,0,0.,4.8,0.,4.8,,0,0.,4.8,0.,4.8
1981-08-30 21:26:40.400 ,1,0,,0,0.,4.8,0.,4.8,,0,0.,4.8,0.,4.8
1981-08-30 21:26:45.200 ,1,0,,0,1.,4.8,0.,4.8,,0,0.,4.8,0.,4.8
1981-08-30 21:26:50.000 ,1,0,,0,0.,4.8,0.,4.8,,0,0.,4.8,0.,4.8
1981-08-30 21:26:54.800 ,1,0,,0,1.,4.8,0.,4.8,,0,0.,4.8,0.,4.8
1981-08-30 21:26:59.600 ,1,0,,0,1.,4.8,0.,4.8,,0,0.,4.8,0.,4.8
1981-08-30 21:27:04.400 ,1,0,,0,0.,4.8,0.,4.8,,0,0.,4.8,0.,4.8
1981-08-30 21:27:09.200 ,1,0,,0,0.,4.8,0.,4.8,,0,0.,4.8,0.,4.8
1981-08-30 21:27:14.000 ,2,0,,0,0.,4.8,0.,4.8,,0,0.,4.8,0.,4.8
1981-08-30 21:27:18.800 ,2,0,,0,0.,4.8,0.,4.8,,0,0.,4.8,0.,4.8
1981-08-30 21:27:23.600 ,2,0,,0,0.,4.8,0.,4.8,,0,0.,4.8,0.,4.8
1981-08-30 21:27:28.400 ,2,0,,0,0.,4.8,0.,4.8,,0,0.,4.8,0.,4.8
1981-08-30 21:27:33.200 ,2,0,,0,1.,4.8,0.,4.8,,0,0.,4.8,0.,4.8
1981-08-30 21:27:38.000 ,2,0,,0,0.,4.8,0.,4.8,,0,0.,4.8,0.,4.8
1981-08-30 21:27:42.800 ,2,0,,0,2.,4.8,0.,4.8,,0,0.,4.8,0.,4.8
1981-08-30 21:27:47.600 ,2,0,,0,0.,4.8,0.,4.8,,0,0.,4.8,0.,4.8
1981-08-30 21:27:52.400 ,2,0,,0,0.,4.8,0.,4.8,,0,0.,4.8,0.,4.8
1981-08-30 21:27:57.200 ,2,0,,0,0.,4.8,0.,4.8,,0,0.,4.8,0.,4.8
1981-08-30 21:28:02.000 ,3,0,,0,0.,4.8,0.,4.8,,0,0.,4.8,0.,4.8
1981-08-30 21:28:06.800 ,3,0,,0,0.,4.8,0.,4.8,,0,0.,4.8,0.,4.8
1981-08-30 21:28:11.600 ,3,0,,0,0.,4.8,0.,4.8,,0,0.,4.8,0.,4.8
1981-08-30 21:28:16.400 ,3,0,,0,0.,4.8,0.,4.8,,0,0.,4.8,0.,4.8
1981-08-30 21:28:21.200 ,3,0,,0,0.,4.8,0.,4.8,,0,0.,4.8,0.,4.8
1981-08-30 21:28:26.000 ,4,0,,0,1.,4.8,0.,4.8,,0,0.,4.8,0.,4.8
1981-08-30 21:28:30.800 ,4,0,,0,2.,4.8,0.,4.8,,0,0.,4.8,0.,4.8
1981-08-30 21:28:35.600 ,4,0,,0,1.,4.8,0.,4.8,,0,0.,4.8,0.,4.8
1981-08-30 21:28:40.400 ,4,0,,0,0.,4.8,0.,4.8,,0,0.,4.8,0.,4.8
1981-08-30 21:28:45.200 ,4,0,,0,0.,4.8,0.,4.8,,0,0.,4.8,0.,4.8
1981-08-30 21:28:50.000 ,5,0,,0,0.,4.8,1.,4.8,,0,0.,4.8,0.,4.8
1981-08-30 21:28:54.800 ,5,0,,0,0.,4.8,0.,4.8,,0,0.,4.8,0.,4.8
1981-08-30 21:28:59.600 ,5,0,,0,0.,4.8,0.,4.8,,0,0.,4.8,0.,4.8
1981-08-30 21:29:04.400 ,5,0,,0,2.,4.8,0.,4.8,,0,0.,4.8,0.,4.8
1981-08-30 21:29:09.200 ,5,0,,0,1.,4.8,0.,4.8,,0,0.,4.8,0.,4.8
1981-08-30 21:29:14.000 ,6,0,,0,3.,4.8,0.,4.8,,0,0.,4.8,0.,4.8
1981-08-30 21:29:18.800 ,6,0,,0,2.,4.8,0.,4.8,,0,0.,4.8,0.,4.8
1981-08-30 21:29:23.600 ,6,0,,0,1.,4.8,0.,4.8,,0,0.,4.8,0.,4.8
1981-08-30 21:29:28.400 ,6,0,,0,0.,4.8,0.,4.8,,0,0.,4.8,0.,4.8
1981-08-30 21:29:33.200 ,6,0,,0,0.,4.8,0.,4.8,,0,0.,4.8,0.,4.8
1981-08-30 21:29:38.000 ,7,0,,0,0.,4.8,0.,4.8,,0,0.,4.8,0.,4.8
1981-08-30 21:29:42.800 ,7,0,,0,0.,4.8,0.,4.8,,0,0.,4.8,0.,4.8
1981-08-30 21:29:47.600 ,7,0,,0,0.,4.8,0.,4.8,,0,0.,4.8,0.,4.8
1981-08-30 21:29:52.400 ,7,0,,0,8.,4.8,0.,4.8,,0,0.,4.8,0.,4.8
1981-08-30 21:29:57.200 ,7,0,,0,14.,4.8,0.,4.8,,0,0.,4.8,0.,4.8
1981-08-30 21:30:02.000 ,7,0,,0,8.,4.8,0.,4.8,,0,0.,4.8,0.,4.8
1981-08-30 21:30:06.800 ,7,0,,0,7.,4.8,0.,4.8,,0,0.,4.8,0.,4.8
1981-08-30 21:30:11.600 ,7,0,,0,8.,4.8,0.,4.8,,0,0.,4.8,0.,4.8
1981-08-30 21:30:16.400 ,7,0,,0,0.,4.8,0.,4.8,,0,0.,4.8,0.,4.8
1981-08-30 21:30:21.200 ,7,0,,0,0.,4.8,0.,4.8,,0,0.,4.8,0.,4.8
1981-08-30 21:30:26.000 ,6,0,,0,0.,4.8,0.,4.8,,0,1.,4.8,0.,4.8
1981-08-30 21:30:30.800 ,6,0,,0,0.,4.8,0.,4.8,,0,0.,4.8,0.,4.8
1981-08-30 21:30:35.600 ,6,0,,0,0.,4.8,0.,4.8,,0,0.,4.8,0.,4.8
1981-08-30 21:30:40.400 ,6,0,,0,1.,4.8,0.,4.8,,0,0.,4.8,0.,4.8